User: anonymous   Login
Location: Caltech
(34.1382°N, 118.1253°W)
Time: 01:40:52
(UTC-07:00)
Language:

Cosmos 44 Rocket - Orbit

View from above orbital plane
View from above orbital plane
View from above satellite
View from above satellite

Ground track
Ground track

The orbit data is extracted from the following two-line orbital elements,

1   877U 64053B   16271.15826986  .00000149  00000-0  30098-4 0  9990
2   877  65.0800 340.8568 0077599 224.4333 135.1008 14.59259193763131
Epoch (UTC): 27 September 2016 03:47:54
Eccentricity: 0.0077599
inclination: 65.0800°
perigee height: 640 km
apogee height: 750 km
right ascension of ascending node: 340.8568°
argument of perigee: 224.4333°
revolutions per day: 14.59259193
mean anomaly at epoch: 135.1008°
orbit number at epoch: 76313

The dashed part of the orbit path shows where the satellite is in the earth's shadow,  

DLR